Time,TemperatureF,DewpointF,PressureIn,WindDirection,WindDirectionDegrees,WindSpeedMPH,WindSpeedGustMPH,Humidity,HourlyPrecipIn,Conditions,Clouds,dailyrainin,SoftwareType,DateUTC
2013-07-02 00:00:00,65.3,54.9,30.07,NNE,30,4.0,4.0,69,0.00,,,0.00,Wunderground v.1.15,2013-07-02 05:00:00,
2013-07-02 00:05:00,65.1,54.7,30.07,NNE,20,4.0,5.0,69,0.00,,,0.00,Wunderground v.1.15,2013-07-02 05:05:00,
2013-07-02 00:10:00,65.0,55.0,30.07,NNW,338,4.0,4.0,70,0.00,,,0.00,Wunderground v.1.15,2013-07-02 05:10:00,
2013-07-02 00:15:00,64.8,54.8,30.07,NNE,20,3.0,4.0,70,0.00,,,0.00,Wunderground v.1.15,2013-07-02 05:15:00,
2013-07-02 00:20:00,64.6,55.0,30.07,NNE,27,3.0,3.0,71,0.00,,,0.00,Wunderground v.1.15,2013-07-02 05:20:00,
2013-07-02 00:25:00,64.4,54.8,30.06,NNE,25,3.0,3.0,71,0.00,,,0.00,Wunderground v.1.15,2013-07-02 05:25:00,
2013-07-02 00:30:00,64.2,55.0,30.07,NNE,25,3.0,4.0,72,0.00,,,0.00,Wunderground v.1.15,2013-07-02 05:30:00,
2013-07-02 00:40:00,63.9,55.1,30.06,NNE,19,3.0,3.0,73,0.00,,,0.00,Wunderground v.1.15,2013-07-02 05:40:00,
2013-07-02 00:45:00,63.9,55.1,30.06,NNE,22,3.0,4.0,73,0.00,,,0.00,Wunderground v.1.15,2013-07-02 05:45:00,
2013-07-02 00:50:00,63.8,55.0,30.06,NNE,25,3.0,3.0,73,0.00,,,0.00,Wunderground v.1.15,2013-07-02 05:50:00,
2013-07-02 01:00:00,63.6,55.2,30.06,NNE,25,4.0,4.0,74,0.00,,,0.00,Wunderground v.1.15,2013-07-02 06:00:00,
2013-07-02 01:10:00,63.3,54.9,30.06,NNE,25,4.0,5.0,74,0.00,,,0.00,Wunderground v.1.15,2013-07-02 06:10:00,
2013-07-02 01:15:00,63.2,54.8,30.06,NE,39,4.0,5.0,74,0.00,,,0.00,Wunderground v.1.15,2013-07-02 06:15:00,
2013-07-02 01:20:00,63.2,54.8,30.06,NNE,21,4.0,4.0,74,0.00,,,0.00,Wunderground v.1.15,2013-07-02 06:20:00,
2013-07-02 01:25:00,63.1,54.7,30.06,NNE,30,4.0,4.0,74,0.00,,,0.00,Wunderground v.1.15,2013-07-02 06:25:00,
2013-07-02 01:30:00,63.1,54.7,30.06,NNE,18,4.0,4.0,74,0.00,,,0.00,Wunderground v.1.15,2013-07-02 06:30:00,
2013-07-02 01:35:00,63.0,54.6,30.06,NNE,27,4.0,4.0,74,0.00,,,0.00,Wunderground v.1.15,2013-07-02 06:35:00,
2013-07-02 01:45:00,62.8,54.4,30.05,NNE,27,4.0,4.0,74,0.00,,,0.00,Wunderground v.1.15,2013-07-02 06:45:00,
2013-07-02 01:50:00,62.6,54.6,30.05,NNE,23,3.0,4.0,75,0.00,,,0.00,Wunderground v.1.15,2013-07-02 06:50:00,
2013-07-02 01:55:00,62.6,54.2,30.05,NNE,18,4.0,5.0,74,0.00,,,0.00,Wunderground v.1.15,2013-07-02 06:55:00,
2013-07-02 02:00:00,62.6,54.2,30.05,NNE,18,4.0,4.0,74,0.00,,,0.00,Wunderground v.1.15,2013-07-02 07:00:00,
2013-07-02 02:05:00,62.5,54.1,30.05,NNE,19,4.0,4.0,74,0.00,,,0.00,Wunderground v.1.15,2013-07-02 07:05:00,
2013-07-02 02:10:00,62.4,54.0,30.05,NNE,22,4.0,6.0,74,0.00,,,0.00,Wunderground v.1.15,2013-07-02 07:10:00,
2013-07-02 02:15:00,62.3,54.3,30.04,NNE,22,4.0,6.0,75,0.00,,,0.00,Wunderground v.1.15,2013-07-02 07:15:00,
2013-07-02 02:20:00,62.1,54.1,30.04,NNE,20,4.0,4.0,75,0.00,,,0.00,Wunderground v.1.15,2013-07-02 07:20:00,
2013-07-02 02:25:00,62.1,54.1,30.04,NE,39,4.0,4.0,75,0.00,,,0.00,Wunderground v.1.15,2013-07-02 07:25:00,
2013-07-02 02:30:00,62.0,54.0,30.04,NE,37,4.0,4.0,75,0.00,,,0.00,Wunderground v.1.15,2013-07-02 07:30:00,
2013-07-02 02:35:00,61.9,53.9,30.04,NNE,20,4.0,4.0,75,0.00,,,0.00,Wunderground v.1.15,2013-07-02 07:35:00,
2013-07-02 02:40:00,62.0,54.0,30.04,NNE,19,4.0,4.0,75,0.00,,,0.00,Wunderground v.1.15,2013-07-02 07:40:00,
2013-07-02 02:45:00,62.0,54.3,30.04,North,1,3.0,4.0,76,0.00,,,0.00,Wunderground v.1.15,2013-07-02 07:45:00,
2013-07-02 02:50:00,61.9,53.9,30.04,NNE,22,2.0,2.0,75,0.00,,,0.00,Wunderground v.1.15,2013-07-02 07:50:00,
2013-07-02 02:55:00,61.7,54.1,30.04,North,9,2.0,2.0,76,0.00,,,0.00,Wunderground v.1.15,2013-07-02 07:55:00,
2013-07-02 03:00:00,61.6,54.0,30.04,NNE,18,2.0,2.0,76,0.00,,,0.00,Wunderground v.1.15,2013-07-02 08:00:00,
2013-07-02 03:10:00,61.4,53.8,30.04,NNE,27,2.0,3.0,76,0.00,,,0.00,Wunderground v.1.15,2013-07-02 08:10:00,
2013-07-02 03:15:00,61.5,53.9,30.04,NNE,22,2.0,3.0,76,0.00,,,0.00,Wunderground v.1.15,2013-07-02 08:15:00,
2013-07-02 03:20:00,61.5,53.9,30.04,NNE,19,3.0,3.0,76,0.00,,,0.00,Wunderground v.1.15,2013-07-02 08:20:00,
2013-07-02 03:25:00,61.5,53.9,30.04,NNE,23,2.0,3.0,76,0.00,,,0.00,Wunderground v.1.15,2013-07-02 08:25:00,
2013-07-02 03:30:00,61.4,53.8,30.04,NNE,19,2.0,2.0,76,0.00,,,0.00,Wunderground v.1.15,2013-07-02 08:30:00,
2013-07-02 03:35:00,61.4,54.1,30.04,NNE,25,2.0,3.0,77,0.00,,,0.00,Wunderground v.1.15,2013-07-02 08:35:00,
2013-07-02 03:40:00,61.3,54.0,30.04,NNE,20,2.0,3.0,77,0.00,,,0.00,Wunderground v.1.15,2013-07-02 08:40:00,
2013-07-02 03:45:00,61.2,53.9,30.04,NNE,26,2.0,3.0,77,0.00,,,0.00,Wunderground v.1.15,2013-07-02 08:45:00,
2013-07-02 03:50:00,61.2,54.3,30.04,North,11,2.0,2.0,78,0.00,,,0.00,Wunderground v.1.15,2013-07-02 08:50:00,
2013-07-02 03:55:00,61.1,53.8,30.04,NNE,18,1.0,2.0,77,0.00,,,0.00,Wunderground v.1.15,2013-07-02 08:55:00,
2013-07-02 04:00:00,61.1,54.2,30.04,North,11,1.0,2.0,78,0.00,,,0.00,Wunderground v.1.15,2013-07-02 09:00:00,
2013-07-02 04:05:00,61.0,54.1,30.05,NNW,335,2.0,2.0,78,0.00,,,0.00,Wunderground v.1.15,2013-07-02 09:05:00,
2013-07-02 04:10:00,61.0,54.1,30.05,North,11,2.0,2.0,78,0.00,,,0.00,Wunderground v.1.15,2013-07-02 09:10:00,
2013-07-02 04:15:00,60.9,54.0,30.05,NNE,18,1.0,2.0,78,0.00,,,0.00,Wunderground v.1.15,2013-07-02 09:15:00,
2013-07-02 04:20:00,60.8,53.9,30.05,NNE,27,1.0,1.0,78,0.00,,,0.00,Wunderground v.1.15,2013-07-02 09:20:00,
2013-07-02 04:25:00,60.7,53.8,30.05,NNE,15,2.0,3.0,78,0.00,,,0.00,Wunderground v.1.15,2013-07-02 09:25:00,
2013-07-02 04:30:00,60.7,54.1,30.05,North,360,2.0,2.0,79,0.00,,,0.00,Wunderground v.1.15,2013-07-02 09:30:00,
2013-07-02 04:35:00,60.6,54.0,30.05,NNE,19,2.0,4.0,79,0.00,,,0.00,Wunderground v.1.15,2013-07-02 09:35:00,
2013-07-02 04:40:00,60.4,53.9,30.04,NNE,19,2.0,2.0,79,0.00,,,0.00,Wunderground v.1.15,2013-07-02 09:40:00,
2013-07-02 04:45:00,60.3,54.1,30.05,NE,51,2.0,3.0,80,0.00,,,0.00,Wunderground v.1.15,2013-07-02 09:45:00,
2013-07-02 04:50:00,60.1,53.9,30.05,NNE,23,2.0,4.0,80,0.00,,,0.00,Wunderground v.1.15,2013-07-02 09:50:00,
2013-07-02 04:55:00,60.0,53.8,30.05,NNE,12,3.0,4.0,80,0.00,,,0.00,Wunderground v.1.15,2013-07-02 09:55:00,
2013-07-02 05:00:00,59.9,53.7,30.05,NNW,340,2.0,2.0,80,0.00,,,0.00,Wunderground v.1.15,2013-07-02 10:00:00,
2013-07-02 05:10:00,59.8,53.6,30.05,NNE,19,3.0,3.0,80,0.00,,,0.00,Wunderground v.1.15,2013-07-02 10:10:00,
2013-07-02 05:15:00,59.8,54.0,30.05,North,6,3.0,3.0,81,0.00,,,0.00,Wunderground v.1.15,2013-07-02 10:15:00,
2013-07-02 05:20:00,59.7,53.9,30.06,North,1,3.0,4.0,81,0.00,,,0.00,Wunderground v.1.15,2013-07-02 10:20:00,
2013-07-02 05:25:00,59.7,53.9,30.06,NNE,30,3.0,4.0,81,0.00,,,0.00,Wunderground v.1.15,2013-07-02 10:25:00,
2013-07-02 05:30:00,59.6,53.8,30.05,NNE,25,2.0,4.0,81,0.00,,,0.00,Wunderground v.1.15,2013-07-02 10:30:00,
2013-07-02 05:35:00,59.5,53.7,30.06,North,9,2.0,4.0,81,0.00,,,0.00,Wunderground v.1.15,2013-07-02 10:35:00,
2013-07-02 05:40:00,59.4,53.9,30.06,North,358,2.0,2.0,82,0.00,,,0.00,Wunderground v.1.15,2013-07-02 10:40:00,
2013-07-02 05:45:00,59.2,53.7,30.06,NNE,17,2.0,3.0,82,0.00,,,0.00,Wunderground v.1.15,2013-07-02 10:45:00,
2013-07-02 05:50:00,59.0,53.5,30.06,NNE,27,2.0,3.0,82,0.00,,,0.00,Wunderground v.1.15,2013-07-02 10:50:00,
2013-07-02 05:55:00,59.0,53.8,30.06,NNE,15,3.0,3.0,83,0.00,,,0.00,Wunderground v.1.15,2013-07-02 10:55:00,
2013-07-02 06:00:00,59.0,53.8,30.06,NNE,27,3.0,3.0,83,0.00,,,0.00,Wunderground v.1.15,2013-07-02 11:00:00,
2013-07-02 06:05:00,59.0,53.8,30.06,NNE,15,3.0,3.0,83,0.00,,,0.00,Wunderground v.1.15,2013-07-02 11:05:00,
2013-07-02 06:10:00,59.1,53.9,30.06,NNE,12,3.0,3.0,83,0.00,,,0.00,Wunderground v.1.15,2013-07-02 11:10:00,
2013-07-02 06:15:00,59.1,53.9,30.07,NNE,18,4.0,4.0,83,0.00,,,0.00,Wunderground v.1.15,2013-07-02 11:15:00,
2013-07-02 06:25:00,59.3,53.8,30.06,North,356,3.0,5.0,82,0.00,,,0.00,Wunderground v.1.15,2013-07-02 11:25:00,
2013-07-02 06:30:00,59.3,54.1,30.07,NNW,346,3.0,3.0,83,0.00,,,0.00,Wunderground v.1.15,2013-07-02 11:30:00,
2013-07-02 06:35:00,59.3,54.1,30.07,NNE,19,3.0,3.0,83,0.00,,,0.00,Wunderground v.1.15,2013-07-02 11:35:00,
2013-07-02 06:40:00,59.5,54.3,30.07,NNE,32,4.0,5.0,83,0.00,,,0.00,Wunderground v.1.15,2013-07-02 11:40:00,
2013-07-02 06:45:00,59.7,54.5,30.07,NE,34,4.0,5.0,83,0.00,,,0.00,Wunderground v.1.15,2013-07-02 11:45:00,
2013-07-02 06:50:00,59.9,54.4,30.07,NNE,25,5.0,5.0,82,0.00,,,0.00,Wunderground v.1.15,2013-07-02 11:50:00,
2013-07-02 06:55:00,59.9,54.7,30.07,NNE,30,5.0,5.0,83,0.00,,,0.00,Wunderground v.1.15,2013-07-02 11:55:00,
2013-07-02 07:00:00,59.9,54.4,30.08,NNE,27,5.0,5.0,82,0.00,,,0.00,Wunderground v.1.15,2013-07-02 12:00:00,
2013-07-02 07:05:00,60.0,54.8,30.07,NNE,19,5.0,5.0,83,0.00,,,0.00,Wunderground v.1.15,2013-07-02 12:05:00,
2013-07-02 07:10:00,60.3,54.8,30.07,NNE,22,4.0,6.0,82,0.00,,,0.00,Wunderground v.1.15,2013-07-02 12:10:00,
2013-07-02 07:15:00,60.4,54.9,30.08,NNE,18,5.0,6.0,82,0.00,,,0.00,Wunderground v.1.15,2013-07-02 12:15:00,
2013-07-02 07:20:00,60.4,54.9,30.08,NNE,23,5.0,5.0,82,0.00,,,0.00,Wunderground v.1.15,2013-07-02 12:20:00,
2013-07-02 07:25:00,60.5,55.0,30.08,NE,34,5.0,6.0,82,0.00,,,0.00,Wunderground v.1.15,2013-07-02 12:25:00,
2013-07-02 07:30:00,60.7,55.2,30.08,North,8,5.0,7.0,82,0.00,,,0.00,Wunderground v.1.15,2013-07-02 12:30:00,
2013-07-02 07:35:00,60.8,55.3,30.08,NNE,17,5.0,7.0,82,0.00,,,0.00,Wunderground v.1.15,2013-07-02 12:35:00,
2013-07-02 07:40:00,61.0,55.5,30.08,NNE,21,5.0,5.0,82,0.00,,,0.00,Wunderground v.1.15,2013-07-02 12:40:00,
2013-07-02 07:45:00,61.2,56.0,30.08,NNE,23,4.0,5.0,83,0.00,,,0.00,Wunderground v.1.15,2013-07-02 12:45:00,
2013-07-02 07:50:00,61.4,55.9,30.08,NNE,19,4.0,5.0,82,0.00,,,0.00,Wunderground v.1.15,2013-07-02 12:50:00,
2013-07-02 07:55:00,61.5,56.0,30.08,NNE,19,4.0,5.0,82,0.00,,,0.00,Wunderground v.1.15,2013-07-02 12:55:00,
2013-07-02 08:00:00,61.8,56.2,30.08,NW,323,3.0,3.0,82,0.00,,,0.00,Wunderground v.1.15,2013-07-02 13:00:00,
2013-07-02 08:05:00,62.0,56.1,30.08,NNE,16,3.0,5.0,81,0.00,,,0.00,Wunderground v.1.15,2013-07-02 13:05:00,
2013-07-02 08:10:00,62.2,56.0,30.08,NW,322,4.0,4.0,80,0.00,,,0.00,Wunderground v.1.15,2013-07-02 13:10:00,
2013-07-02 08:15:00,62.3,56.0,30.08,NNW,330,4.0,4.0,80,0.00,,,0.00,Wunderground v.1.15,2013-07-02 13:15:00,
2013-07-02 08:20:00,62.5,55.9,30.09,NNE,23,4.0,6.0,79,0.00,,,0.00,Wunderground v.1.15,2013-07-02 13:20:00,
2013-07-02 08:25:00,62.6,56.0,30.08,North,8,4.0,6.0,79,0.00,,,0.00,Wunderground v.1.15,2013-07-02 13:25:00,
2013-07-02 08:30:00,62.8,55.8,30.08,NNE,23,5.0,5.0,78,0.00,,,0.00,Wunderground v.1.15,2013-07-02 13:30:00,
2013-07-02 08:35:00,63.0,56.0,30.08,NNE,15,6.0,6.0,78,0.00,,,0.00,Wunderground v.1.15,2013-07-02 13:35:00,
2013-07-02 08:40:00,63.6,56.6,30.08,NE,51,6.0,6.0,78,0.00,,,0.00,Wunderground v.1.15,2013-07-02 13:40:00,
2013-07-02 08:45:00,64.0,56.6,30.08,NE,46,6.0,7.0,77,0.00,,,0.00,Wunderground v.1.15,2013-07-02 13:45:00,
2013-07-02 08:50:00,64.2,56.8,30.09,NNE,27,6.0,6.0,77,0.00,,,0.00,Wunderground v.1.15,2013-07-02 13:50:00,
2013-07-02 08:55:00,64.5,57.1,30.09,NE,35,6.0,6.0,77,0.00,,,0.00,Wunderground v.1.15,2013-07-02 13:55:00,
2013-07-02 09:00:00,64.9,57.2,30.09,NNE,20,5.0,5.0,76,0.00,,,0.00,Wunderground v.1.15,2013-07-02 14:00:00,
2013-07-02 09:05:00,65.2,57.4,30.09,NNE,19,4.0,5.0,76,0.00,,,0.00,Wunderground v.1.15,2013-07-02 14:05:00,
2013-07-02 09:10:00,65.5,57.0,30.08,NNE,20,4.0,6.0,74,0.00,,,0.00,Wunderground v.1.15,2013-07-02 14:10:00,
2013-07-02 09:15:00,66.2,57.7,30.08,NW,326,5.0,6.0,74,0.00,,,0.00,Wunderground v.1.15,2013-07-02 14:15:00,
2013-07-02 09:20:00,66.7,57.4,30.08,NNE,20,5.0,5.0,72,0.00,,,0.00,Wunderground v.1.15,2013-07-02 14:20:00,
2013-07-02 09:25:00,66.9,56.8,30.08,NE,39,5.0,7.0,70,0.00,,,0.00,Wunderground v.1.15,2013-07-02 14:25:00,
2013-07-02 09:30:00,67.1,57.4,30.08,NNE,25,6.0,6.0,71,0.00,,,0.00,Wunderground v.1.15,2013-07-02 14:30:00,
2013-07-02 09:35:00,67.4,56.9,30.08,NE,34,7.0,7.0,69,0.00,,,0.00,Wunderground v.1.15,2013-07-02 14:35:00,
2013-07-02 09:40:00,67.9,58.5,30.08,NE,34,7.0,7.0,72,0.00,,,0.00,Wunderground v.1.15,2013-07-02 14:40:00,
2013-07-02 09:45:00,68.2,58.0,30.08,NNE,22,6.0,7.0,70,0.00,,,0.00,Wunderground v.1.15,2013-07-02 14:45:00,
2013-07-02 09:50:00,68.5,57.5,30.08,NNE,15,5.0,5.0,68,0.00,,,0.00,Wunderground v.1.15,2013-07-02 14:50:00,
2013-07-02 09:55:00,68.7,57.7,30.07,NE,41,5.0,5.0,68,0.00,,,0.00,Wunderground v.1.15,2013-07-02 14:55:00,
2013-07-02 10:00:00,69.0,57.6,30.08,North,11,5.0,5.0,67,0.00,,,0.00,Wunderground v.1.15,2013-07-02 15:00:00,
2013-07-02 10:05:00,69.1,57.3,30.07,NNE,30,5.0,7.0,66,0.00,,,0.00,Wunderground v.1.15,2013-07-02 15:05:00,
2013-07-02 10:10:00,69.0,57.6,30.07,NNE,18,6.0,6.0,67,0.00,,,0.00,Wunderground v.1.15,2013-07-02 15:10:00,
2013-07-02 10:15:00,69.6,58.2,30.07,NNE,30,5.0,6.0,67,0.00,,,0.00,Wunderground v.1.15,2013-07-02 15:15:00,
2013-07-02 10:20:00,69.9,58.0,30.07,NNW,348,4.0,4.0,66,0.00,,,0.00,Wunderground v.1.15,2013-07-02 15:20:00,
2013-07-02 10:25:00,70.2,58.3,30.08,North,356,5.0,5.0,66,0.00,,,0.00,Wunderground v.1.15,2013-07-02 15:25:00,
2013-07-02 10:30:00,70.7,57.0,30.07,NNE,29,6.0,6.0,62,0.00,,,0.00,Wunderground v.1.15,2013-07-02 15:30:00,
2013-07-02 10:35:00,71.0,57.3,30.07,NNW,336,6.0,6.0,62,0.00,,,0.00,Wunderground v.1.15,2013-07-02 15:35:00,
2013-07-02 10:40:00,71.1,56.0,30.07,NE,44,6.0,6.0,59,0.00,,,0.00,Wunderground v.1.15,2013-07-02 15:40:00,
2013-07-02 10:45:00,71.0,54.5,30.08,NNE,15,6.0,8.0,56,0.00,,,0.00,Wunderground v.1.15,2013-07-02 15:45:00,
2013-07-02 10:50:00,71.0,55.9,30.08,NE,44,6.0,8.0,59,0.00,,,0.00,Wunderground v.1.15,2013-07-02 15:50:00,
2013-07-02 10:55:00,71.3,55.8,30.08,NE,49,8.0,10.0,58,0.00,,,0.00,Wunderground v.1.15,2013-07-02 15:55:00,
2013-07-02 11:00:00,71.5,55.0,30.08,NNE,30,8.0,8.0,56,0.00,,,0.00,Wunderground v.1.15,2013-07-02 16:00:00,
2013-07-02 11:05:00,71.5,56.4,30.08,NNE,19,8.0,8.0,59,0.00,,,0.00,Wunderground v.1.15,2013-07-02 16:05:00,
2013-07-02 11:10:00,71.9,55.8,30.08,NE,49,7.0,7.0,57,0.00,,,0.00,Wunderground v.1.15,2013-07-02 16:10:00,
2013-07-02 11:15:00,72.0,54.4,30.08,NE,49,7.0,7.0,54,0.00,,,0.00,Wunderground v.1.15,2013-07-02 16:15:00,
2013-07-02 11:20:00,71.9,55.3,30.08,NNE,20,8.0,8.0,56,0.00,,,0.00,Wunderground v.1.15,2013-07-02 16:20:00,
2013-07-02 11:25:00,71.7,56.1,30.08,NNE,27,7.0,8.0,58,0.00,,,0.00,Wunderground v.1.15,2013-07-02 16:25:00,
2013-07-02 11:30:00,72.3,54.7,30.08,NE,39,6.0,10.0,54,0.00,,,0.00,Wunderground v.1.15,2013-07-02 16:30:00,
2013-07-02 11:35:00,72.7,54.6,30.08,North,9,8.0,10.0,53,0.00,,,0.00,Wunderground v.1.15,2013-07-02 16:35:00,
2013-07-02 11:40:00,72.9,56.3,30.08,NE,42,9.0,9.0,56,0.00,,,0.00,Wunderground v.1.15,2013-07-02 16:40:00,
2013-07-02 11:45:00,73.1,53.9,30.08,NE,37,8.0,9.0,51,0.00,,,0.00,Wunderground v.1.15,2013-07-02 16:45:00,
2013-07-02 11:50:00,72.9,54.2,30.08,NE,45,9.0,9.0,52,0.00,,,0.00,Wunderground v.1.15,2013-07-02 16:50:00,
2013-07-02 11:55:00,72.5,53.9,30.08,NNE,27,9.0,9.0,52,0.00,,,0.00,Wunderground v.1.15,2013-07-02 16:55:00,
2013-07-02 12:00:00,72.7,54.6,30.08,NE,49,9.0,12.0,53,0.00,,,0.00,Wunderground v.1.15,2013-07-02 17:00:00,
2013-07-02 12:10:00,72.3,55.7,30.08,NNE,25,8.0,8.0,56,0.00,,,0.00,Wunderground v.1.15,2013-07-02 17:10:00,
2013-07-02 12:15:00,72.8,56.7,30.08,NE,34,6.0,8.0,57,0.00,,,0.00,Wunderground v.1.15,2013-07-02 17:15:00,
2013-07-02 12:20:00,72.5,55.4,30.08,NE,56,5.0,15.0,55,0.00,,,0.00,Wunderground v.1.15,2013-07-02 17:20:00,
2013-07-02 12:25:00,71.9,54.9,30.08,NE,48,8.0,15.0,55,0.00,,,0.00,Wunderground v.1.15,2013-07-02 17:25:00,
2013-07-02 12:30:00,71.7,54.7,30.08,ENE,69,9.0,9.0,55,0.00,,,0.00,Wunderground v.1.15,2013-07-02 17:30:00,
2013-07-02 12:35:00,72.0,56.4,30.07,NNE,17,7.0,9.0,58,0.00,,,0.00,Wunderground v.1.15,2013-07-02 17:35:00,
2013-07-02 12:40:00,72.1,55.0,30.08,NNE,30,7.0,7.0,55,0.00,,,0.00,Wunderground v.1.15,2013-07-02 17:40:00,
2013-07-02 12:45:00,72.4,57.3,30.07,NE,53,7.0,7.0,59,0.00,,,0.00,Wunderground v.1.15,2013-07-02 17:45:00,
2013-07-02 12:50:00,72.8,58.1,30.08,NNE,21,6.0,7.0,60,0.00,,,0.00,Wunderground v.1.15,2013-07-02 17:50:00,
2013-07-02 12:55:00,72.6,56.5,30.08,NNE,25,7.0,10.0,57,0.00,,,0.00,Wunderground v.1.15,2013-07-02 17:55:00,
2013-07-02 13:00:00,72.5,56.9,30.07,ENE,67,8.0,8.0,58,0.00,,,0.00,Wunderground v.1.15,2013-07-02 18:00:00,
2013-07-02 13:05:00,72.7,57.5,30.07,NNE,30,7.0,8.0,59,0.00,,,0.00,Wunderground v.1.15,2013-07-02 18:05:00,
2013-07-02 13:10:00,72.9,56.8,30.07,ENE,58,6.0,7.0,57,0.00,,,0.00,Wunderground v.1.15,2013-07-02 18:10:00,
2013-07-02 13:15:00,72.7,56.1,30.07,NE,45,7.0,8.0,56,0.00,,,0.00,Wunderground v.1.15,2013-07-02 18:15:00,
2013-07-02 13:20:00,72.6,56.5,30.07,ENE,60,8.0,8.0,57,0.00,,,0.00,Wunderground v.1.15,2013-07-02 18:20:00,
2013-07-02 13:25:00,72.6,57.0,30.07,NE,34,7.0,8.0,58,0.00,,,0.00,Wunderground v.1.15,2013-07-02 18:25:00,
2013-07-02 13:30:00,72.6,57.4,30.07,NE,45,7.0,7.0,59,0.00,,,0.00,Wunderground v.1.15,2013-07-02 18:30:00,
2013-07-02 13:35:00,72.4,55.3,30.06,NE,45,7.0,7.0,55,0.00,,,0.00,Wunderground v.1.15,2013-07-02 18:35:00,
2013-07-02 13:40:00,72.3,55.7,30.06,NNE,20,7.0,7.0,56,0.00,,,0.00,Wunderground v.1.15,2013-07-02 18:40:00,
2013-07-02 13:45:00,72.3,55.7,30.07,ENE,73,6.0,7.0,56,0.00,,,0.00,Wunderground v.1.15,2013-07-02 18:45:00,
2013-07-02 13:50:00,72.1,55.0,30.07,NE,51,6.0,6.0,55,0.00,,,0.00,Wunderground v.1.15,2013-07-02 18:50:00,
2013-07-02 13:55:00,72.0,55.9,30.07,NE,39,6.0,6.0,57,0.00,,,0.00,Wunderground v.1.15,2013-07-02 18:55:00,
2013-07-02 14:00:00,72.0,55.4,30.07,ENE,75,5.0,8.0,56,0.00,,,0.00,Wunderground v.1.15,2013-07-02 19:00:00,
2013-07-02 14:10:00,71.9,55.8,30.06,ENE,57,8.0,8.0,57,0.00,,,0.00,Wunderground v.1.15,2013-07-02 19:10:00,
2013-07-02 14:15:00,71.9,54.9,30.07,NE,34,6.0,8.0,55,0.00,,,0.00,Wunderground v.1.15,2013-07-02 19:15:00,
2013-07-02 14:20:00,71.8,55.3,30.07,ENE,57,5.0,5.0,56,0.00,,,0.00,Wunderground v.1.15,2013-07-02 19:20:00,
2013-07-02 14:25:00,71.8,55.7,30.07,NE,44,6.0,6.0,57,0.00,,,0.00,Wunderground v.1.15,2013-07-02 19:25:00,
2013-07-02 14:30:00,71.7,56.1,30.07,ENE,68,7.0,7.0,58,0.00,,,0.00,Wunderground v.1.15,2013-07-02 19:30:00,
2013-07-02 14:35:00,71.7,57.1,30.06,NE,43,6.0,7.0,60,0.00,,,0.00,Wunderground v.1.15,2013-07-02 19:35:00,
2013-07-02 14:40:00,71.8,58.1,30.06,NE,54,6.0,6.0,62,0.00,,,0.00,Wunderground v.1.15,2013-07-02 19:40:00,
2013-07-02 14:45:00,71.7,57.1,30.06,NE,37,5.0,9.0,60,0.00,,,0.00,Wunderground v.1.15,2013-07-02 19:45:00,
2013-07-02 14:50:00,71.8,57.2,30.06,NNE,25,5.0,5.0,60,0.00,,,0.00,Wunderground v.1.15,2013-07-02 19:50:00,
2013-07-02 14:55:00,71.8,56.7,30.06,NE,35,6.0,6.0,59,0.00,,,0.00,Wunderground v.1.15,2013-07-02 19:55:00,
2013-07-02 15:00:00,72.0,57.4,30.06,ENE,59,6.0,9.0,60,0.00,,,0.00,Wunderground v.1.15,2013-07-02 20:00:00,
2013-07-02 15:05:00,72.4,57.7,30.06,NE,35,5.0,9.0,60,0.00,,,0.00,Wunderground v.1.15,2013-07-02 20:05:00,
2013-07-02 15:10:00,72.3,58.1,30.06,NE,34,5.0,6.0,61,0.00,,,0.00,Wunderground v.1.15,2013-07-02 20:10:00,
2013-07-02 15:15:00,72.3,58.5,30.06,NE,39,5.0,6.0,62,0.00,,,0.00,Wunderground v.1.15,2013-07-02 20:15:00,
2013-07-02 15:25:00,72.2,57.1,30.06,NNE,25,7.0,7.0,59,0.00,,,0.00,Wunderground v.1.15,2013-07-02 20:25:00,
2013-07-02 15:30:00,72.2,56.6,30.06,NNE,29,7.0,7.0,58,0.00,,,0.00,Wunderground v.1.15,2013-07-02 20:30:00,
2013-07-02 15:35:00,72.3,57.2,30.06,NE,44,6.0,7.0,59,0.00,,,0.00,Wunderground v.1.15,2013-07-02 20:35:00,
2013-07-02 15:40:00,72.3,56.2,30.06,NE,51,6.0,6.0,57,0.00,,,0.00,Wunderground v.1.15,2013-07-02 20:40:00,
2013-07-02 15:45:00,72.6,56.0,30.06,NE,40,6.0,7.0,56,0.00,,,0.00,Wunderground v.1.15,2013-07-02 20:45:00,
2013-07-02 15:50:00,72.8,56.2,30.06,NE,39,6.0,6.0,56,0.00,,,0.00,Wunderground v.1.15,2013-07-02 20:50:00,
2013-07-02 15:55:00,72.8,56.7,30.06,NNE,30,6.0,7.0,57,0.00,,,0.00,Wunderground v.1.15,2013-07-02 20:55:00,
2013-07-02 16:00:00,72.8,55.2,30.06,ENE,67,6.0,10.0,54,0.00,,,0.00,Wunderground v.1.15,2013-07-02 21:00:00,
2013-07-02 16:10:00,72.8,55.7,30.06,NNE,22,8.0,8.0,55,0.00,,,0.00,Wunderground v.1.15,2013-07-02 21:10:00,
2013-07-02 16:15:00,73.1,54.4,30.06,NNE,22,7.0,8.0,52,0.00,,,0.00,Wunderground v.1.15,2013-07-02 21:15:00,
2013-07-02 16:20:00,73.7,55.0,30.05,NNE,15,8.0,10.0,52,0.00,,,0.00,Wunderground v.1.15,2013-07-02 21:20:00,
2013-07-02 16:25:00,74.1,54.3,30.05,NE,45,8.0,10.0,50,0.00,,,0.00,Wunderground v.1.15,2013-07-02 21:25:00,
2013-07-02 16:30:00,74.2,53.2,30.05,NNE,20,8.0,8.0,48,0.00,,,0.00,Wunderground v.1.15,2013-07-02 21:30:00,
2013-07-02 16:35:00,73.9,53.5,30.05,NNE,15,7.0,8.0,49,0.00,,,0.00,Wunderground v.1.15,2013-07-02 21:35:00,
2013-07-02 16:40:00,73.5,52.6,30.05,NE,49,8.0,10.0,48,0.00,,,0.00,Wunderground v.1.15,2013-07-02 21:40:00,
2013-07-02 16:45:00,73.4,52.5,30.05,NE,49,8.0,10.0,48,0.00,,,0.00,Wunderground v.1.15,2013-07-02 21:45:00,
2013-07-02 16:50:00,73.3,53.5,30.05,NNE,15,7.0,7.0,50,0.00,,,0.00,Wunderground v.1.15,2013-07-02 21:50:00,
2013-07-02 16:55:00,73.3,53.0,30.05,NE,46,6.0,7.0,49,0.00,,,0.00,Wunderground v.1.15,2013-07-02 21:55:00,
2013-07-02 17:00:00,73.1,53.4,30.04,NE,41,6.0,7.0,50,0.00,,,0.00,Wunderground v.1.15,2013-07-02 22:00:00,
2013-07-02 17:05:00,73.0,53.8,30.04,NNE,29,6.0,7.0,51,0.00,,,0.00,Wunderground v.1.15,2013-07-02 22:05:00,
2013-07-02 17:10:00,72.9,54.2,30.05,ENE,57,5.0,9.0,52,0.00,,,0.00,Wunderground v.1.15,2013-07-02 22:10:00,
2013-07-02 17:15:00,72.8,54.1,30.05,NE,51,6.0,9.0,52,0.00,,,0.00,Wunderground v.1.15,2013-07-02 22:15:00,
2013-07-02 17:20:00,72.7,53.0,30.05,NE,49,6.0,6.0,50,0.00,,,0.00,Wunderground v.1.15,2013-07-02 22:20:00,
2013-07-02 17:30:00,72.7,52.4,30.04,NNE,20,5.0,6.0,49,0.00,,,0.00,Wunderground v.1.15,2013-07-02 22:30:00,
2013-07-02 17:35:00,72.8,52.5,30.04,NNE,18,5.0,7.0,49,0.00,,,0.00,Wunderground v.1.15,2013-07-02 22:35:00,
2013-07-02 17:40:00,72.8,52.0,30.04,NE,51,5.0,5.0,48,0.00,,,0.00,Wunderground v.1.15,2013-07-02 22:40:00,
2013-07-02 17:45:00,72.9,53.2,30.04,NE,54,5.0,5.0,50,0.00,,,0.00,Wunderground v.1.15,2013-07-02 22:45:00,
2013-07-02 17:55:00,72.9,52.1,30.04,NE,41,4.0,4.0,48,0.00,,,0.00,Wunderground v.1.15,2013-07-02 22:55:00,
2013-07-02 18:00:00,72.9,53.7,30.04,East,100,5.0,5.0,51,0.00,,,0.00,Wunderground v.1.15,2013-07-02 23:00:00,
2013-07-02 18:05:00,73.0,55.4,30.04,NE,34,5.0,5.0,54,0.00,,,0.00,Wunderground v.1.15,2013-07-02 23:05:00,
2013-07-02 18:10:00,72.8,55.2,30.04,NE,43,4.0,4.0,54,0.00,,,0.00,Wunderground v.1.15,2013-07-02 23:10:00,
2013-07-02 18:20:00,72.2,57.5,30.04,NE,39,3.0,3.0,60,0.00,,,0.00,Wunderground v.1.15,2013-07-02 23:20:00,
2013-07-02 18:25:00,72.1,57.9,30.04,NE,44,4.0,4.0,61,0.00,,,0.00,Wunderground v.1.15,2013-07-02 23:25:00,
2013-07-02 18:30:00,72.2,58.0,30.04,ENE,70,3.0,5.0,61,0.00,,,0.00,Wunderground v.1.15,2013-07-02 23:30:00,
2013-07-02 18:35:00,72.1,57.9,30.04,ENE,71,4.0,5.0,61,0.00,,,0.00,Wunderground v.1.15,2013-07-02 23:35:00,
2013-07-02 18:40:00,72.0,57.4,30.04,ENE,63,5.0,5.0,60,0.00,,,0.00,Wunderground v.1.15,2013-07-02 23:40:00,
2013-07-02 18:45:00,72.0,58.7,30.04,NE,44,4.0,5.0,63,0.00,,,0.00,Wunderground v.1.15,2013-07-02 23:45:00,
2013-07-02 18:50:00,72.1,57.9,30.04,NE,43,4.0,4.0,61,0.00,,,0.00,Wunderground v.1.15,2013-07-02 23:50:00,
2013-07-02 18:55:00,72.2,59.3,30.04,NNE,25,3.0,4.0,64,0.00,,,0.00,Wunderground v.1.15,2013-07-02 23:55:00,
2013-07-02 19:00:00,72.1,58.8,30.04,NE,54,3.0,4.0,63,0.00,,,0.00,Wunderground v.1.15,2013-07-03 00:00:00,
2013-07-02 19:05:00,72.2,58.9,30.04,ENE,78,3.0,4.0,63,0.00,,,0.00,Wunderground v.1.15,2013-07-03 00:05:00,
2013-07-02 19:10:00,72.2,58.9,30.04,ENE,63,4.0,5.0,63,0.00,,,0.00,Wunderground v.1.15,2013-07-03 00:10:00,
2013-07-02 19:15:00,72.0,58.7,30.04,ENE,63,4.0,6.0,63,0.00,,,0.00,Wunderground v.1.15,2013-07-03 00:15:00,
2013-07-02 19:20:00,71.9,58.6,30.04,East,92,6.0,8.0,63,0.00,,,0.00,Wunderground v.1.15,2013-07-03 00:20:00,
2013-07-02 19:25:00,71.6,58.3,30.04,ENE,74,8.0,8.0,63,0.00,,,0.00,Wunderground v.1.15,2013-07-03 00:25:00,
2013-07-02 19:30:00,71.3,58.9,30.04,ENE,72,7.0,7.0,65,0.00,,,0.00,Wunderground v.1.15,2013-07-03 00:30:00,
2013-07-02 19:35:00,71.2,59.3,30.04,ENE,59,6.0,7.0,66,0.00,,,0.00,Wunderground v.1.15,2013-07-03 00:35:00,
2013-07-02 19:40:00,70.9,59.0,30.05,ENE,78,6.0,9.0,66,0.00,,,0.00,Wunderground v.1.15,2013-07-03 00:40:00,
2013-07-02 19:45:00,70.5,58.6,30.05,ENE,65,7.0,9.0,66,0.00,,,0.00,Wunderground v.1.15,2013-07-03 00:45:00,
2013-07-02 19:50:00,70.2,58.7,30.05,NE,53,7.0,7.0,67,0.00,,,0.00,Wunderground v.1.15,2013-07-03 00:50:00,
2013-07-02 19:55:00,69.9,58.9,30.05,ENE,65,5.0,7.0,68,0.00,,,0.00,Wunderground v.1.15,2013-07-03 00:55:00,
2013-07-02 20:00:00,69.6,59.0,30.05,ENE,57,5.0,5.0,69,0.00,,,0.00,Wunderground v.1.15,2013-07-03 01:00:00,
2013-07-02 20:05:00,69.3,58.7,30.05,NE,52,5.0,5.0,69,0.00,,,0.00,Wunderground v.1.15,2013-07-03 01:05:00,
2013-07-02 20:10:00,69.0,58.4,30.04,ENE,68,5.0,5.0,69,0.00,,,0.00,Wunderground v.1.15,2013-07-03 01:10:00,
2013-07-02 20:20:00,68.7,58.5,30.05,ENE,65,5.0,5.0,70,0.00,,,0.00,Wunderground v.1.15,2013-07-03 01:20:00,
2013-07-02 20:25:00,68.5,58.3,30.05,ENE,65,5.0,6.0,70,0.00,,,0.00,Wunderground v.1.15,2013-07-03 01:25:00,
2013-07-02 20:30:00,68.3,58.1,30.05,ENE,61,6.0,6.0,70,0.00,,,0.00,Wunderground v.1.15,2013-07-03 01:30:00,
2013-07-02 20:35:00,68.0,57.8,30.05,ENE,58,6.0,6.0,70,0.00,,,0.00,Wunderground v.1.15,2013-07-03 01:35:00,
2013-07-02 20:40:00,67.8,58.1,30.05,ENE,60,5.0,5.0,71,0.00,,,0.00,Wunderground v.1.15,2013-07-03 01:40:00,
2013-07-02 20:50:00,67.5,57.4,30.06,ENE,61,4.0,5.0,70,0.00,,,0.00,Wunderground v.1.15,2013-07-03 01:50:00,
2013-07-02 20:55:00,67.3,56.8,30.05,NE,39,5.0,5.0,69,0.00,,,0.00,Wunderground v.1.15,2013-07-03 01:55:00,
2013-07-02 21:00:00,67.1,56.2,30.06,ENE,71,5.0,6.0,68,0.00,,,0.00,Wunderground v.1.15,2013-07-03 02:00:00,
2013-07-02 21:05:00,66.9,56.0,30.06,ENE,68,5.0,6.0,68,0.00,,,0.00,Wunderground v.1.15,2013-07-03 02:05:00,
2013-07-02 21:10:00,66.7,56.2,30.06,ENE,70,4.0,4.0,69,0.00,,,0.00,Wunderground v.1.15,2013-07-03 02:10:00,
2013-07-02 21:15:00,66.4,55.9,30.06,ENE,64,3.0,4.0,69,0.00,,,0.00,Wunderground v.1.15,2013-07-03 02:15:00,
2013-07-02 21:20:00,66.3,55.4,30.06,NE,45,3.0,4.0,68,0.00,,,0.00,Wunderground v.1.15,2013-07-03 02:20:00,
2013-07-02 21:30:00,65.9,55.4,30.06,ENE,60,4.0,4.0,69,0.00,,,0.00,Wunderground v.1.15,2013-07-03 02:30:00,
2013-07-02 21:35:00,65.7,55.2,30.06,NE,56,4.0,4.0,69,0.00,,,0.00,Wunderground v.1.15,2013-07-03 02:35:00,
2013-07-02 21:50:00,65.2,55.2,30.07,ENE,63,4.0,4.0,70,0.00,,,0.00,Wunderground v.1.15,2013-07-03 02:50:00,
2013-07-02 21:55:00,65.0,55.4,30.08,NE,49,4.0,4.0,71,0.00,,,0.00,Wunderground v.1.15,2013-07-03 02:55:00,
2013-07-02 22:00:00,64.8,55.2,30.08,NE,49,3.0,3.0,71,0.00,,,0.00,Wunderground v.1.15,2013-07-03 03:00:00,
2013-07-02 22:05:00,64.6,55.4,30.08,NE,49,3.0,3.0,72,0.00,,,0.00,Wunderground v.1.15,2013-07-03 03:05:00,
2013-07-02 22:10:00,64.5,55.3,30.08,ENE,63,2.0,3.0,72,0.00,,,0.00,Wunderground v.1.15,2013-07-03 03:10:00,
2013-07-02 22:15:00,64.5,55.7,30.08,NE,49,3.0,3.0,73,0.00,,,0.00,Wunderground v.1.15,2013-07-03 03:15:00,
2013-07-02 22:20:00,64.4,55.6,30.08,ENE,67,3.0,3.0,73,0.00,,,0.00,Wunderground v.1.15,2013-07-03 03:20:00,
2013-07-02 22:25:00,64.3,55.5,30.09,ENE,71,3.0,3.0,73,0.00,,,0.00,Wunderground v.1.15,2013-07-03 03:25:00,
2013-07-02 22:30:00,64.1,55.6,30.09,ENE,63,3.0,3.0,74,0.00,,,0.00,Wunderground v.1.15,2013-07-03 03:30:00,
2013-07-02 22:35:00,64.1,55.6,30.09,ENE,61,2.0,3.0,74,0.00,,,0.00,Wunderground v.1.15,2013-07-03 03:35:00,
2013-07-02 22:40:00,64.1,56.0,30.09,ENE,63,2.0,2.0,75,0.00,,,0.00,Wunderground v.1.15,2013-07-03 03:40:00,
2013-07-02 22:45:00,64.0,55.9,30.08,ENE,68,2.0,2.0,75,0.00,,,0.00,Wunderground v.1.15,2013-07-03 03:45:00,
2013-07-02 22:50:00,64.0,55.9,30.08,ENE,68,2.0,2.0,75,0.00,,,0.00,Wunderground v.1.15,2013-07-03 03:50:00,
2013-07-02 22:55:00,63.9,55.8,30.08,ENE,70,2.0,2.0,75,0.00,,,0.00,Wunderground v.1.15,2013-07-03 03:55:00,
2013-07-02 23:00:00,63.9,55.8,30.08,ENE,70,1.0,2.0,75,0.00,,,0.00,Wunderground v.1.15,2013-07-03 04:00:00,
2013-07-02 23:05:00,63.9,56.2,30.08,NE,43,1.0,2.0,76,0.00,,,0.00,Wunderground v.1.15,2013-07-03 04:05:00,
2013-07-02 23:10:00,63.9,56.2,30.08,NNE,30,1.0,2.0,76,0.00,,,0.00,Wunderground v.1.15,2013-07-03 04:10:00,
2013-07-02 23:15:00,63.9,56.2,30.08,NNE,27,2.0,2.0,76,0.00,,,0.00,Wunderground v.1.15,2013-07-03 04:15:00,
2013-07-02 23:20:00,63.8,56.1,30.08,NNE,27,1.0,1.0,76,0.00,,,0.00,Wunderground v.1.15,2013-07-03 04:20:00,
2013-07-02 23:25:00,63.7,56.0,30.08,NNE,27,0.0,1.0,76,0.00,,,0.00,Wunderground v.1.15,2013-07-03 04:25:00,
2013-07-02 23:30:00,63.5,56.2,30.08,NNE,25,0.0,0.0,77,0.00,,,0.00,Wunderground v.1.15,2013-07-03 04:30:00,
2013-07-02 23:35:00,63.4,56.1,30.08,NNE,23,0.0,0.0,77,0.00,,,0.00,Wunderground v.1.15,2013-07-03 04:35:00,
2013-07-02 23:40:00,63.2,55.9,30.08,NNE,23,0.0,0.0,77,0.00,,,0.00,Wunderground v.1.15,2013-07-03 04:40:00,
2013-07-02 23:45:00,63.0,55.7,30.08,NNE,25,0.0,0.0,77,0.00,,,0.00,Wunderground v.1.15,2013-07-03 04:45:00,
2013-07-02 23:55:00,62.8,56.2,30.08,NNE,25,0.0,0.0,79,0.00,,,0.00,Wunderground v.1.15,2013-07-03 04:55:00,